コプフ彗星

22P/Kopff (2002)

English version
Home page
Updated on December 31, 2013

---------------------------------------------------------------------

・ プロフィール

・ 写真集

・ 軌道要素

Epoch 2003 Jan. 1.0 TT = JDT 2452640.5
T 2002 Dec. 12.08396 TT                                 MPC
q   1.5836379            (2000.0)            P               Q
n   0.15263759     Peri.  162.76492     +0.23736897     +0.96885245
a   3.4675951      Node   120.91558     -0.90067483     +0.24671838
e   0.5433037      Incl.    4.71865     -0.36392421     +0.02132991
P   6.46
From 2373 observations 1997 Nov. 8-2010 Dec. 2, mean residual 0".7.
     Nongravitational parameters A1 = -0.12, A2 = -0.1052.

・ 星図

・ 光度変化

        m1 = 5.3 + 5 logΔ + 21.0 log r

---------------------------------------------------------------------

軌道要素はM.P.E.C. 2012-J16に掲載されたものです。
星図は StellaNavigator Ver.2.0 for Windows (アストロアーツ編著 / アスキー出版局刊) で作成したものです。
光度グラフはComet for Windowsで作成したものです。

---------------------------------------------------------------------

Copyright(C) Seiichi Yoshida (comet@aerith.net). All rights reserved.